TimeEST,TemperatureF,Dew PointF,Humidity,Sea Level PressureIn,VisibilityMPH,Wind Direction,Wind SpeedMPH,Gust SpeedMPH,PrecipitationIn,Events,Conditions,WindDirDegrees,DateUTC
12:53 AM,5.0,1.0,84,30.33,2.5,Calm,Calm,-,N/A,,Clear,0,2013-02-07 05:53:00
1:03 AM,8.1,1.9,76,30.22,4.0,Calm,Calm,-,N/A,,Haze,0,2013-02-07 06:03:00
1:53 AM,7.0,1.9,80,30.32,9.0,Calm,Calm,-,N/A,,Clear,0,2013-02-07 06:53:00
2:53 AM,5.0,-0.0,80,30.34,10.0,Calm,Calm,-,N/A,,Clear,0,2013-02-07 07:53:00
3:53 AM,3.9,-0.9,80,30.34,10.0,Calm,Calm,-,N/A,,Scattered Clouds,0,2013-02-07 08:53:00
4:44 AM,1.9,-2.9,80,30.23,2.5,Calm,Calm,-,N/A,,Haze,0,2013-02-07 09:44:00
4:53 AM,3.9,-2.0,76,30.34,4.0,Calm,Calm,-,N/A,,Haze,0,2013-02-07 09:53:00
5:53 AM,9.0,3.9,80,30.34,6.0,SE,3.5,-,N/A,,Haze,140,2013-02-07 10:53:00
6:53 AM,14.0,9.0,80,30.34,10.0,SE,5.8,-,N/A,,Overcast,140,2013-02-07 11:53:00
7:53 AM,15.1,9.0,77,30.35,10.0,ESE,3.5,-,N/A,,Overcast,110,2013-02-07 12:53:00
8:53 AM,19.0,12.0,74,30.35,10.0,SE,5.8,-,N/A,,Overcast,130,2013-02-07 13:53:00
9:53 AM,24.1,12.0,60,30.34,10.0,SSE,12.7,-,N/A,,Overcast,150,2013-02-07 14:53:00
10:53 AM,27.0,14.0,58,30.32,10.0,SSE,9.2,-,N/A,,Overcast,150,2013-02-07 15:53:00
11:53 AM,30.0,15.1,54,30.30,10.0,SSE,10.4,-,N/A,,Clear,160,2013-02-07 16:53:00
12:53 PM,30.9,17.1,57,30.26,10.0,SE,9.2,-,N/A,,Overcast,130,2013-02-07 17:53:00
1:53 PM,33.1,17.1,52,30.23,10.0,ESE,9.2,-,N/A,,Overcast,120,2013-02-07 18:53:00
2:53 PM,33.1,17.1,52,30.20,10.0,SE,9.2,-,N/A,,Overcast,130,2013-02-07 19:53:00
3:53 PM,33.1,18.0,54,30.20,10.0,ESE,9.2,-,N/A,,Mostly Cloudy,120,2013-02-07 20:53:00
4:53 PM,33.1,19.0,56,30.19,10.0,SE,10.4,-,N/A,,Overcast,130,2013-02-07 21:53:00
5:53 PM,30.9,18.0,59,30.19,10.0,SE,11.5,-,N/A,,Mostly Cloudy,130,2013-02-07 22:53:00
6:53 PM,30.0,18.0,61,30.18,10.0,SE,11.5,19.6,N/A,,Mostly Cloudy,140,2013-02-07 23:53:00
7:53 PM,28.9,19.0,67,30.15,9.0,SSE,15.0,21.9,N/A,,Clear,150,2013-02-08 00:53:00
8:53 PM,28.0,18.0,66,30.12,7.0,SE,17.3,25.3,N/A,,Clear,140,2013-02-08 01:53:00
9:53 PM,28.0,18.0,66,30.09,8.0,SE,13.8,26.5,N/A,,Clear,140,2013-02-08 02:53:00
10:53 PM,27.0,17.1,66,30.06,9.0,SSE,13.8,26.5,N/A,,Clear,150,2013-02-08 03:53:00